Location: Goll?ig?dem
(16.6773°N, 80.7332°E)
Time: 00:46:57
(UTC+00:00)

Cosmos 2344 - Pass Details

Date: 21 April 2021
Orbit: 1241 x 3001 km, 63.3° (Epoch: 07 May)

Event Time Altitude Azimuth Distance (km) Brightness Sun altitude
Rises 13:23:11 0° 211° (SSW) 4,888 6.9 -7.6°
Reaches altitude 10° 13:26:32 10° 214° (SSW) 3,704 6.3 -8.4°
Maximum altitude 13:35:04 66° 295° (WNW) 1,409 4.1 -10.4°
Drops below altitude 10° 13:42:25 10° 17° (NNE) 3,204 5.7 -12.0°
Sets 13:45:07 0° 21° (NNE) 4,189 6.3 -12.7°
